Hourly Data Report for November 28, 2016

All times are specified in Local Standard Time (LST). Add 1 hour to adjust for Daylight Saving Time where and when it is observed.

KITCHENER/WATERLOO
ONTARIO

43°27'39.000" N
80°22'43.000" W
321.60 m
6144239
71368
YKF

Download Data

Hourly Data (November 2016)
Hourly Data Report for November 28, 2016
Temp Definition
°C
Dew Point Temp Definition
°C
Rel Hum Definition
%
Wind Dir Definition
10's deg

Wind Spd Definition
km/h
Visibility Definition
km
Stn Press Definition
kPa
Hmdx Definition


Wind Chill Definition


Weather Definition


TIME
00:00 Legend Double Dagger -0.6 -0.7 99 8 5 4.0 97.95   -2 Fog
01:00 Legend Double Dagger -1.2 -1.6 97 12 5 4.8 97.91   -3 Fog
02:00 Legend Double Dagger -1.1 -1.5 97 13 5 4.0 97.90   -3 Fog
03:00 Legend Double Dagger -1.2 -1.6 97 12 8 3.6 97.86   -4 Fog
04:00 Legend Double Dagger -2.1 -2.4 98 10 8 4.0 97.78   -5 Fog
05:00 Legend Double Dagger -1.8 -2.1 98 9 5 2.0 97.76   -4 Fog
06:00 Legend Double Dagger -0.6 -1.0 97 10 11 4.8 97.73   -4 Fog
07:00 Legend Double Dagger -0.3 -0.9 96 11 11 4.8 97.71   -4 Fog
08:00 Legend Double Dagger 0.7 0.3 97 11 13 4.8 97.76     Fog
09:00 Legend Double Dagger 2.4 1.6 94 11 17 8.1 97.72     Fog
10:00 Legend Double Dagger 5.2 3.0 86 12 17 14.5 97.69     LegendNANA
11:00 Legend Double Dagger 5.6 3.0 83 12 15 16.1 97.62     LegendNANA
12:00 Legend Double Dagger 6.6 2.7 76 11 22 16.1 97.48     LegendNANA
13:00 Legend Double Dagger 6.7 2.2 73 11 24 16.1 97.34     LegendNANA
14:00 Legend Double Dagger 6.9 2.0 71 13 17 16.1 97.39     LegendNANA
15:00 Legend Double Dagger 6.3 2.0 74 10 24 16.1 97.25     LegendNANA
16:00 Legend Double Dagger 5.3 1.6 77 10 17 16.1 97.22     LegendNANA
17:00 Legend Double Dagger 5.0 1.4 77 11 18 16.1 97.24     LegendNANA
18:00 Legend Double Dagger 5.5 1.5 76 9 22 16.1 97.16     LegendNANA
19:00 Legend Double Dagger 5.9 1.6 74 10 17 16.1 97.18     LegendNANA
20:00 Legend Double Dagger 6.0 2.3 77 9 24 16.1 97.07     Rain
21:00 Legend Double Dagger 6.8 1.7 70 11 18 16.1 96.97     Rain
22:00 Legend Double Dagger 5.1 2.8 85 11 17 11.3 96.96     Rain
23:00 Legend Double Dagger 5.4 2.6 82 10 28 16.1 96.79     LegendNANA

Notes on Data Quality.

Legend

  • E = Estimated
  • M = Missing
  • NA = Not Available
  • ‡ = Partner data that is not subject to review by the National Climate Archives
Date modified: